Dewpoint
61 61 61 61 61 61 61 60 61 61 61 61 60 60 60 60 60 60 61 61 61 61 61 61 59 57 56 55 56 56 56 56 56 56 56 55 54 54 54 55 56 57 56 56 56 55 55 56 56 56 56 56 56 56 56 56 55 55 54 54 55 56 57 57 57 57 57 57 57
61 61 61 60 60 60 61 61 60 61 61 61 61 61 61 60 60 61 61 61 61 61 61 60 58 56 55 55 56 56 56 55 55 55 55 55 55 55 56 57 57 57 57 56 56 55 55 55 55 56 56 56 56 56 56 56 56 56 55 55 55 55 56 57 56 55 55 55 56
61 61 61 61 61 60 60 60 61 61 61 61 61 61 61 61 60 60 61 61 61 60 60 59 57 56 55 55 55 55 55 55 54 54 54 53 53 54 55 57 57 57 56 55 54 54 54 54 55 55 55 54 55 55 55 54 54 54 53 53 53 53 54 56 57 57 57 58 57
61 61 61 61 61 60 60 60 60 60 61 61 61 61 61 61 60 60 60 59 59 58 57 56 55 55 55 55 54 54 54 53 53 53 52 52 52 53 54 54 54 54 54 53 53 53 53 53 53 53 52 52 52 53 54 53 53 52 52 51 52 52 52 52 53 54 55 57 58
60 61 61 61 61 61 61 61 60 60 60 61 61 61 61 60 60 60 59 58 57 56 56 55 54 54 54 54 53 53 53 52 53 52 52 51 51 52 53 54 54 53 52 53 54 54 53 52 52 51 51 50 51 51 51 51 51 52 51 51 51 51 51 51 50 51 52 54 55
60 61 61 61 61 61 61 61 61 61 61 61 61 60 60 60 59 59 58 57 55 54 54 54 54 54 53 53 53 52 52 52 52 52 51 51 51 52 52 52 52 52 52 53 53 53 53 52 51 50 49 49 50 50 50 51 52 52 52 51 50 50 50 50 49 50 51 52 52
60 60 60 60 61 61 61 61 61 61 61 61 61 60 60 59 58 57 57 56 54 54 54 54 54 54 53 53 52 52 52 52 51 51 51 51 51 51 51 51 51 51 52 52 52 52 52 52 51 51 51 51 50 50 51 52 52 52 52 52 50 49 50 50 49 49 51 52 51
60 60 60 60 60 60 60 61 60 60 60 60 60 60 59 58 57 56 55 54 54 54 54 54 54 54 54 53 52 52 52 51 51 51 51 51 50 50 50 50 50 50 50 51 52 52 52 52 52 51 51 50 50 49 50 51 52 52 52 51 48 48 48 48 48 49 50 52 51
59 60 60 60 60 60 60 60 60 60 59 59 60 60 59 57 57 56 55 54 53 53 54 54 54 54 54 53 52 52 51 51 51 51 51 51 51 50 50 50 50 50 50 50 51 51 51 51 51 50 50 49 49 49 49 50 51 51 50 49 48 47 47 47 48 48 50 51 51
59 59 59 60 60 59 59 59 58 58 58 58 59 59 58 57 57 57 55 54 53 53 53 53 54 54 53 52 52 52 52 52 51 51 51 50 50 50 50 50 50 50 49 49 49 50 50 50 50 49 48 48 48 49 49 49 50 49 48 48 47 47 47 47 47 48 49 50 50
58 58 58 59 58 58 57 57 56 56 56 57 58 58 58 57 57 57 56 54 53 53 52 53 54 54 53 52 52 52 52 52 51 51 50 50 50 50 49 49 49 49 49 48 49 49 49 49 48 48 47 47 48 48 48 48 49 48 48 47 47 47 47 46 46 47 47 48 48
55 56 57 58 57 57 56 55 55 54 54 55 56 57 57 57 57 56 55 54 53 53 52 53 54 54 53 52 51 51 51 52 51 51 51 50 50 49 49 49 48 48 48 48 48 48 48 47 47 47 47 46 47 47 48 48 48 48 47 46 46 46 46 45 45 45 46 46 47
52 52 54 56 56 56 55 55 54 54 54 54 54 55 56 56 56 55 54 54 53 52 52 53 54 53 52 52 51 51 51 52 51 51 51 49 49 48 48 48 47 47 46 46 47 47 46 46 47 47 46 46 47 47 47 47 47 47 46 45 45 45 45 44 44 44 45 45 45
50 51 52 53 54 54 54 54 54 54 53 53 53 53 53 54 54 54 54 54 53 52 52 52 53 53 52 51 51 51 51 52 51 50 49 48 48 47 47 46 45 44 44 44 45 46 45 46 47 46 46 46 46 46 46 46 47 46 46 46 45 45 44 43 44 44 44 45 44
48 49 50 51 52 52 52 52 52 52 51 51 51 50 51 51 52 52 53 53 52 51 51 51 52 52 51 50 50 50 50 50 49 48 48 47 46 45 45 44 43 43 43 43 44 45 45 45 45 45 45 45 45 45 45 46 46 46 46 45 45 44 44 44 44 44 44 44 44
48 48 48 49 49 50 50 50 50 49 48 48 48 48 48 48 48 49 49 50 49 49 49 49 49 49 49 49 48 48 48 48 47 47 46 45 44 44 43 43 43 43 43 44 45 44 44 44 44 44 44 44 44 44 45 45 45 45 45 45 45 44 44 44 44 44 44 44 44
47 47 47 48 48 48 48 48 48 48 47 47 46 46 46 46 46 47 48 48 48 47 47 47 47 48 48 47 47 46 46 46 45 45 44 44 43 43 42 42 42 43 44 44 44 43 43 43 44 44 44 44 44 44 44 44 43 44 44 43 43 43 44 44 44 44 43 44 44
46 46 46 47 47 47 47 47 47 46 46 45 45 45 45 45 45 46 46 46 46 46 45 45 45 45 45 45 44 44 44 44 43 43 42 42 41 41 40 40 40 41 43 43 43 43 43 43 43 43 43 44 43 43 43 43 43 43 43 43 43 43 43 43 43 43 43 43 44
45 45 45 46 46 46 46 46 46 45 45 45 44 44 44 44 45 45 45 44 44 44 44 44 43 43 42 42 42 42 42 41 41 40 39 39 39 39 39 38 39 39 40 41 42 42 41 41 41 41 42 43 43 42 42 42 42 42 42 42 42 42 42 42 42 42 42 43 43
45 45 45 45 45 45 45 45 45 44 44 44 44 43 43 43 43 44 43 43 43 42 43 43 42 41 40 40 40 40 40 39 39 38 37 37 37 37 37 37 37 38 39 39 39 39 39 39 39 39 41 42 42 41 41 42 42 41 41 41 41 41 41 41 41 41 41 42 42
44 44 43 43 43 44 44 44 44 44 43 43 43 43 42 42 42 42 42 41 40 40 40 41 40 39 39 39 39 38 37 37 36 36 36 35 35 35 35 35 36 37 38 38 38 38 37 38 38 39 40 41 41 40 40 41 41 41 41 41 40 40 40 40 41 41 41 41 41
43 43 43 43 43 43 43 43 43 43 43 42 42 41 41 41 40 40 39 39 39 39 39 39 38 38 38 38 37 36 35 35 34 34 34 34 34 35 36 37 37 37 37 36 36 36 36 36 37 38 39 39 39 39 40 41 41 41 40 40 40 40 40 40 40 40 41 41 41
43 42 42 42 42 42 43 43 42 42 42 41 41 40 40 39 39 38 38 39 39 38 37 36 36 36 36 36 36 36 35 34 34 35 35 36 36 37 37 37 37 37 37 36 35 35 36 36 37 38 39 39 39 40 41 41 41 41 40 40 40 39 39 40 40 39 39 39 39
42 42 42 41 41 41 41 42 41 41 41 40 39 39 39 38 38 38 37 37 38 37 37 37 36 36 35 35 35 35 36 36 36 37 38 39 39 39 39 39 39 39 39 39 39 39 39 38 39 40 40 40 40 41 41 40 40 40 40 40 40 39 39 39 39 39 39 39 39
41 42 42 41 41 41 41 41 41 40 39 39 38 38 38 37 37 37 37 37 37 37 38 37 37 37 37 36 36 36 37 38 38 38 39 39 39 39 39 40 40 40 41 41 43 43 43 42 42 41 41 41 41 41 40 40 40 40 40 40 40 40 39 39 39 38 38 38 38
41 41 41 41 41 41 41 40 40 39 39 38 37 37 37 37 37 37 37 37 37 37 37 37 37 38 38 37 37 37 38 39 39 39 39 39 39 40 40 40 40 40 41 42 43 43 44 44 44 43 41 40 40 40 40 40 40 40 40 40 40 40 39 39 38 37 37 36 37
41 41 41 40 41 40 40 39 39 38 38 37 37 37 36 36 37 37 37 36 36 36 36 36 37 37 38 35 36 36 37 38 38 37 37 37 38 38 38 39 39 40 40 42 43 43 43 44 44 44 43 40 39 40 40 40 40 39 39 39 39 39 39 38 37 36 36 35 36
41 40 40 40 40 39 39 38 38 38 37 37 36 36 36 35 36 36 36 35 35 35 35 35 36 36 36 35 35 35 35 35 35 35 35 35 36 35 35 36 37 39 41 42 43 43 43 43 43 44 43 43 40 39 39 39 39 39 38 38 38 38 37 37 36 36 35 35 35
41 40 40 40 40 39 38 38 38 37 36 36 36 35 35 35 36 35 35 35 35 35 34 34 35 34 34 34 34 34 34 34 34 34 34 34 34 33 33 33 34 36 39 43 43 43 43 43 43 43 43 44 42 40 40 39 39 38 38 37 37 37 37 36 36 36 36 35 35
40 40 40 40 39 39 38 38 37 36 36 36 35 35 35 35 35 35 35 35 34 34 34 33 34 34 33 33 33 33 33 34 33 33 33 33 32 32 33 35 34 35 39 42 42 43 43 43 43 43 43 44 42 40 38 38 37 38 38 37 37 36 36 36 36 36 35 35 35
39 40 40 39 39 39 38 37 36 35 35 36 35 35 36 35 34 34 34 34 34 34 34 33 33 33 32 32 33 33 34 34 34 35 35 35 35 35 34 33 33 34 38 42 42 42 43 43 43 43 43 44 43 40 37 37 37 37 37 37 36 36 36 36 35 35 35 35 36
39 39 39 39 39 38 37 36 35 35 35 35 35 35 35 34 34 33 33 33 34 34 34 33 33 32 32 32 32 33 33 34 35 36 37 36 36 35 34 33 33 34 38 41 41 42 42 42 43 43 43 43 42 39 35 36 36 36 36 36 35 35 36 35 35 35 35 35 35
39 39 39 39 38 37 36 35 35 35 35 35 35 35 34 34 33 32 32 33 33 33 33 33 32 32 33 34 33 33 33 34 36 37 38 37 36 36 35 34 33 35 39 41 41 41 42 42 42 42 43 43 40 37 34 35 35 36 36 35 35 35 35 35 35 34 34 34 34
39 38 38 38 37 36 35 35 34 34 34 34 34 34 34 33 33 33 33 34 33 32 32 31 31 32 33 33 34 34 34 35 35 35 36 36 35 36 35 34 33 36 39 41 41 41 41 41 42 42 43 43 39 36 35 36 35 35 35 34 34 34 34 34 34 33 33 33 33
39 38 38 37 36 36 35 35 34 34 34 34 34 33 33 33 33 34 34 35 34 32 31 30 30 30 30 31 32 34 35 35 34 34 35 35 36 37 36 34 34 36 39 40 41 41 41 41 41 42 42 42 37 35 35 35 35 34 34 34 33 33 32 32 31 31 31 31 32
39 39 38 37 36 36 35 35 35 35 35 35 34 33 33 32 33 34 36 37 34 33 31 31 31 31 32 33 33 34 35 34 34 34 35 36 37 37 36 35 34 36 39 40 40 40 41 41 41 42 42 39 36 35 35 35 34 34 33 33 33 32 31 30 30 30 30 30 31
39 39 38 37 36 36 35 35 35 35 35 35 34 33 32 31 32 34 37 37 34 33 33 33 32 32 33 33 33 34 35 34 35 36 36 37 37 37 36 34 33 34 37 39 40 40 40 41 41 42 40 36 34 34 35 34 34 33 33 32 31 30 29 28 29 30 30 31 32
39 39 38 38 37 36 36 36 36 36 35 34 33 32 30 30 32 34 37 38 35 35 35 35 34 34 33 33 34 34 35 35 36 36 36 37 37 36 35 34 33 34 35 39 40 40 41 41 42 42 39 34 34 34 34 34 33 33 32 31 30 29 28 27 28 29 30 32 34
39 39 38 38 37 36 36 36 36 35 35 33 32 31 30 30 32 34 38 39 37 37 37 37 36 35 35 35 35 35 35 35 36 36 36 35 36 36 36 34 33 33 35 38 39 40 41 41 42 41 38 35 34 34 34 33 32 32 31 30 30 29 28 27 28 29 30 32 36
38 38 38 38 37 37 36 36 35 34 33 33 32 31 30 31 33 35 38 38 37 37 37 37 36 36 36 37 36 35 35 35 35 35 36 35 35 37 37 34 32 32 34 38 39 40 41 42 42 40 38 35 34 34 34 33 32 31 30 30 30 29 29 28 27 28 29 30 35
38 38 37 37 37 36 36 35 34 33 32 32 31 31 31 31 34 36 37 37 37 37 37 36 35 35 36 38 37 36 35 35 35 35 35 35 35 37 38 35 32 32 33 36 39 41 42 42 41 39 38 34 33 33 33 32 32 31 30 29 29 29 29 28 27 27 28 28 30